PYRO2: Pryor Creek

Data processed at Thu May 23 2019 23:50


All information presented herein is the property of the government of the United States of America and may be revised or deleted at any time without prior notice.
Dissemination of this information without the expressed written consent of the Public Affairs Office, Tulsa District U.S. Army Corps of Engineers is strictly prohibited.
These data are gathered electronically and, as presented, have not undergone any form of quality control. These data are not guaranteed to be valid or correct.
Go to home page.
Go to station list.
Go to home page.

Downstream station:


Previous Day
Next Day
Current Day
    
SHEF ID:       PYRO2     Pryor Creek
STATION TYPE:  
Regulating: Stage =    21.00, Flow =     3244

               PRECIP     STAGE  RIV-FLOW   VOLTAGE  BAT-LOAD
                   in        ft       cfs      volt      volt
              Ccp-Rev   Ccp-Rev   Ccp-Rev   Ccp-Rev   Ccp-Rev
(US/Central)
05/23 00:00      0.00     23.21      7717     13.05     12.89
05/23 01:00      0.00     23.26      7922     13.05     12.89
05/23 02:00      0.00     23.28      8004     13.05     12.89
05/23 03:00      0.00     23.26      7922     12.97     12.81
05/23 04:00      0.00     23.23      7799     12.97     12.81
05/23 05:00      0.00     23.17      7554     12.97     12.81
05/23 06:00      0.00     23.09      7227     12.97     12.81
05/23 07:00      0.00     22.99      6818     13.05     12.81
05/23 08:00      0.00     22.86      6286     13.53     13.29
05/23 09:00      0.00     22.72      5713     13.92     13.68
05/23 10:00      0.00     22.58      5140     13.84     13.60
05/23 11:00      0.00     22.42      4486     13.92     13.60
05/23 12:00      0.00     22.28      3913     13.68     13.84
05/23 13:00      0.00     22.12      3765     13.68     14.16
05/23 14:00      0.00     21.96      3691     13.92     13.68
05/23 15:00      0.00     21.79      3611     14.00     13.60
05/23 16:00      0.00     21.63      3537     13.68     13.92
05/23 17:00      0.00     21.47      3462     14.00     14.32
05/23 18:00      0.00     21.31      3388     14.08     13.76
05/23 19:00      0.00     21.15      3313     14.40     13.60
05/23 20:00      0.00     21.00      3244     13.37     13.37
05/23 21:00      0.00     20.87      3183     13.13     13.05
05/23 22:00      0.00     20.75      3127     13.05     12.97
05/23 23:00      0.00     20.65      3081     13.05     12.97